ZL1TQN Weather Reports


Display with metric or nautical units.
time (UTC)temp
F
wind
direction
speed
MPH
gust
MPH
rain 1hr
in
rain 24hr
in
rain mn
in
humidity
%
barometer
mb
20260901022005 61 246 9.0 13.0 0.00 0.00 0.00 54 1012.5
20260901021505 61 225 6.0 16.0 0.00 0.00 0.00 56 1012.5
20260901021005 60 233 8.0 25.0 0.00 0.00 0.00 55 1012.5
20260901020005 60 177 6.0 16.0 0.00 0.00 0.00 53 1012.5
20260901013505 60 171 6.0 16.0 0.00 0.00 0.00 58 1012.5
20260901013005 60 256 5.0 20.0 0.00 0.00 0.00 58 1012.5
20260901012505 59 253 9.0 22.0 0.00 0.00 0.00 59 1012.6
20260901011505 58 234 5.0 10.0 0.00 0.00 0.00 61 1013.0
20260901011005 58 233 2.0 13.0 0.00 0.00 0.00 61 1013.1
20260901010005 58 246 7.0 18.0 0.00 0.00 0.00 59 1013.3
20260901005505 58 238 9.0 18.0 0.00 0.00 0.00 58 1013.4
20260901005005 58 243 7.0 17.0 0.00 0.00 0.00 59 1013.5
20260901004505 58 255 9.0 18.0 0.00 0.00 0.00 58 1013.5
20260901004005 59 252 12.0 20.0 0.00 0.00 0.00 56 1013.6
20260901003505 59 233 8.0 20.0 0.00 0.00 0.00 56 1013.5
20260901003005 60 268 6.0 13.0 0.00 0.00 0.00 57 1013.6
20260901002505 59 242 6.0 16.0 0.00 0.00 0.00 56 1013.7
20260901002005 59 241 10.0 16.0 0.00 0.00 0.00 55 1013.7
20260901001505 60 241 7.0 26.0 0.00 0.00 0.00 55 1013.9
20260901001005 59 231 9.0 26.0 0.00 0.00 0.00 56 1013.8
20260901000005 59 257 12.0 22.0 0.00 0.00 0.00 56 1013.9
20260831235505 59 261 12.0 22.0 0.00 0.00 0.00 56 1013.9
20260831235004 58 237 9.0 18.0 0.00 0.00 0.00 58 1013.9
20260831234504 58 215 5.0 12.0 0.00 0.00 0.00 57 1013.8
20260831234005 59 248 3.0 14.0 0.00 0.00 0.00 59 1013.8
20260831233505 58 243 6.0 15.0 0.00 0.00 0.00 58 1013.7
20260831233005 58 241 8.0 20.0 0.00 0.00 0.00 57 1013.6
20260831231505 57 219 5.0 15.0 0.00 0.00 0.00 59 1013.7
20260831230005 57 258 7.0 20.0 0.00 0.00 0.00 61 1013.5
20260831225504 57 280 7.0 20.0 0.00 0.00 0.00 61 1013.6
20260831225004 57 233 5.0 18.0 0.00 0.00 0.00 60 1013.6
20260831224505 56 250 9.0 18.0 0.00 0.00 0.00 60 1013.7
20260831223505 56 259 5.0 26.0 0.00 0.00 0.00 61 1013.5
20260831223004 56 229 9.0 26.0 0.00 0.00 0.00 60 1013.5
20260831222505 55 189 11.0 20.0 0.00 0.00 0.00 62 1013.4
20260831221005 56 237 5.0 13.0 0.00 0.00 0.00 61 1013.4
20260831220004 55 263 7.0 16.0 0.00 0.00 0.00 62 1013.4
20260831215505 55 253 5.0 12.0 0.00 0.00 0.00 64 1013.5
20260831215004 55 247 3.0 10.0 0.00 0.00 0.00 64 1013.3
20260831214504 55 262 5.0 10.0 0.00 0.00 0.00 62 1013.3
20260831214004 55 218 2.0 5.0 0.00 0.00 0.00 63 1013.2
20260831213504 54 211 3.0 5.0 0.00 0.00 0.00 63 1013.2
20260831213005 54 193 1.0 10.0 0.00 0.00 0.00 66 1013.2
20260831212505 54 223 2.0 13.0 0.00 0.00 0.00 64 1013.0
20260831212005 54 247 6.0 13.0 0.00 0.00 0.00 63 1013.1
20260831211505 54 246 3.0 7.0 0.00 0.00 0.00 63 1013.1
20260831211004 54 264 5.0 9.0 0.00 0.00 0.00 63 1013.0
20260831210004 54 253 4.0 10.0 0.00 0.00 0.00 64 1012.9
20260831205005 54 265 5.0 10.0 0.00 0.00 0.00 62 1012.5
20260831204504 54 251 3.0 13.0 0.00 0.00 0.00 62 1012.5
20260831204005 54 202 3.0 13.0 0.00 0.00 0.00 62 1012.5
20260831203504 54 190 2.0 8.0 0.00 0.00 0.00 63 1012.3
20260831203005 54 263 3.0 12.0 0.00 0.00 0.00 62 1012.0
20260831202505 53 255 3.0 12.0 0.00 0.00 0.00 64 1012.0
20260831202004 53 247 3.0 12.0 0.00 0.00 0.00 64 1012.0
20260831201504 53 257 2.0 10.0 0.00 0.00 0.00 65 1012.0
20260831201005 53 236 3.0 12.0 0.00 0.00 0.00 64 1012.0
20260831200004 53 249 5.0 12.0 0.00 0.00 0.00 64 1012.0
20260831195506 53 256 7.0 12.0 0.00 0.00 0.00 64 1011.7
20260831195004 52 258 6.0 12.0 0.00 0.00 0.00 65 1011.6
20260831194505 52 270 5.0 10.0 0.00 0.00 0.00 65 1011.6
20260831193505 52 264 2.0 6.0 0.00 0.00 0.00 65 1011.4
20260831193005 52 252 2.0 9.0 0.00 0.00 0.00 65 1011.4
20260831192505 52 272 3.0 9.0 0.00 0.00 0.00 65 1011.4
20260831192005 52 248 5.0 13.0 0.00 0.00 0.00 65 1011.1
20260831191505 52 245 3.0 13.0 0.00 0.00 0.00 65 1011.0
20260831191005 52 279 2.0 10.0 0.00 0.00 0.00 66 1011.0
20260831190006 52 224 2.0 7.0 0.00 0.00 0.00 66 1011.0
20260831185504 52 269 2.0 13.0 0.00 0.00 0.00 66 1011.0
20260831185005 52 248 6.0 13.0 0.00 0.00 0.00 65 1011.0
20260831184506 52 270 2.0 10.0 0.00 0.00 0.00 66 1010.8
20260831182504 51 216 1.0 7.0 0.00 0.00 0.00 68 1010.5
20260831182005 51 292 3.0 7.0 0.00 0.00 0.00 68 1010.3
20260831181504 52 302 0.0 6.0 0.00 0.00 0.00 69 1010.2
20260831181004 52 231 3.0 8.0 0.00 0.00 0.00 68 1010.3
20260831180004 52 267 7.0 13.0 0.00 0.00 0.00 69 1009.9
20260831175505 51 274 5.0 9.0 0.00 0.00 0.00 69 1009.8
20260831175005 51 273 3.0 5.0 0.00 0.00 0.00 70 1009.9
20260831174005 51 264 1.0 3.0 0.00 0.00 0.00 70 1009.8
20260831173005 51 305 2.0 7.0 0.00 0.00 0.00 69 1009.5
20260831172504 52 248 2.0 12.0 0.00 0.00 0.00 69 1009.4
20260831172004 51 271 4.0 12.0 0.00 0.00 0.00 69 1009.2
20260831171504 51 325 4.0 7.0 0.00 0.00 0.00 70 1009.1
20260831171006 51 244 2.0 7.0 0.00 0.00 0.00 70 1008.9
20260831170005 51 292 2.0 5.0 0.00 0.00 0.00 70 1008.9
20260831165506 52 283 2.0 13.0 0.00 0.00 0.00 70 1008.8
20260831165005 52 280 2.0 13.0 0.00 0.00 0.00 69 1008.8
20260831164504 52 246 6.0 15.0 0.00 0.00 0.00 69 1008.8
20260831164004 52 253 3.0 15.0 0.00 0.00 0.00 70 1008.6
20260831163505 52 271 4.0 15.0 0.00 0.00 0.00 70 1008.4
20260831163005 52 281 4.0 12.0 0.00 0.00 0.00 70 1008.3
20260831162004 52 267 3.0 14.0 0.00 0.00 0.00 70 1008.3
20260831161504 52 263 9.0 14.0 0.00 0.00 0.00 71 1008.3
20260831161005 52 234 2.0 13.0 0.00 0.00 0.00 71 1008.3
20260831160005 52 256 7.0 13.0 0.00 0.00 0.00 72 1008.4
20260831155504 52 265 6.0 12.0 0.00 0.00 0.00 73 1008.3
20260831155004 53 263 7.0 13.0 0.00 0.00 0.00 72 1008.4
20260831154504 53 267 4.0 14.0 0.00 0.00 0.00 72 1008.4
20260831153504 53 267 6.0 15.0 0.00 0.00 0.00 72 1008.6
20260831152505 53 272 3.0 15.0 0.00 0.00 0.00 72 1008.3
20260831152004 53 294 3.0 14.0 0.00 0.00 0.00 72 1008.3
20260831151504 53 279 1.0 12.0 0.00 0.00 0.00 72 1008.3
20260831151004 53 274 3.0 12.0 0.00 0.00 0.00 72 1008.3
20260831150005 53 261 5.0 13.0 0.00 0.00 0.00 72 1008.3
20260831145505 53 263 6.0 13.0 0.00 0.00 0.00 72 1008.3
20260831145004 53 259 7.0 14.0 0.00 0.00 0.00 72 1008.3
20260831144005 54 271 9.0 15.0 0.00 0.00 0.00 72 1008.4
20260831143504 54 257 5.0 13.0 0.00 0.00 0.00 73 1008.3
20260831143004 53 268 6.0 13.0 0.00 0.00 0.00 73 1008.3
20260831142004 54 308 3.0 12.0 0.00 0.00 0.00 74 1008.3
20260831141504 54 278 4.0 12.0 0.00 0.00 0.00 74 1008.5
20260831141004 54 269 7.0 12.0 0.00 0.00 0.00 74 1008.8
20260831140005 54 211 3.0 10.0 0.00 0.00 0.00 74 1008.8
20260831135504 54 265 3.0 13.0 0.00 0.00 0.00 75 1008.7
20260831135005 54 254 5.0 13.0 0.00 0.00 0.00 74 1008.6
20260831134505 54 232 3.0 13.0 0.00 0.00 0.00 74 1008.4
20260831134005 54 234 6.0 14.0 0.00 0.00 0.00 74 1008.3
20260831133505 54 250 7.0 15.0 0.00 0.00 0.00 76 1008.4
20260831133004 54 210 3.0 15.0 0.00 0.00 0.00 74 1008.4
20260831132504 54 223 7.0 20.0 0.00 0.00 0.00 73 1008.3
20260831132005 54 216 11.0 20.0 0.00 0.00 0.00 74 1008.3
20260831131504 53 248 7.0 14.0 0.00 0.00 0.00 74 1008.2
20260831130004 53 281 5.0 13.0 0.00 0.00 0.00 74 1007.7
20260831125504 53 266 4.0 13.0 0.00 0.00 0.00 74 1007.7
20260831125004 54 276 9.0 17.0 0.00 0.00 0.00 73 1007.8
20260831124504 54 244 7.0 20.0 0.00 0.00 0.00 72 1007.8
20260831124004 54 253 12.0 20.0 0.00 0.00 0.00 72 1007.8
20260831123504 53 253 9.0 16.0 0.00 0.00 0.00 73 1007.7
20260831123004 54 264 7.0 20.0 0.00 0.00 0.00 72 1007.7
20260831122504 54 233 11.0 20.0 0.00 0.00 0.00 72 1007.7
20260831122004 54 267 12.0 18.0 0.00 0.00 0.00 72 1007.7
20260831121504 54 275 8.0 21.0 0.00 0.00 0.00 72 1007.6
20260831121005 54 259 7.0 21.0 0.00 0.00 0.00 71 1007.6
20260831120004 54 259 8.0 20.0 0.00 0.00 0.00 71 1007.7
20260831115504 54 262 12.0 20.0 0.00 0.00 0.00 70 1007.7
20260831115004 54 236 9.0 20.0 0.00 0.00 0.00 71 1007.7
20260831114504 54 276 10.0 20.0 0.00 0.00 0.00 71 1007.6
20260831114004 54 263 14.0 23.0 0.00 0.00 0.00 71 1007.7
20260831113504 54 236 12.0 23.0 0.00 0.00 0.00 71 1007.7
20260831113004 54 246 9.0 22.0 0.00 0.00 0.00 71 1007.7
20260831112505 54 275 10.0 23.0 0.00 0.00 0.00 70 1007.7
20260831112005 54 270 15.0 25.0 0.00 0.00 0.00 71 1007.4
20260831111505 54 230 12.0 25.0 0.00 0.00 0.00 71 1007.3
20260831111005 54 255 13.0 23.0 0.00 0.00 0.00 71 1007.2
20260831110004 54 265 12.0 25.0 0.00 0.00 0.00 71 1007.2
20260831105504 54 247 14.0 26.0 0.00 0.00 0.00 72 1007.0
20260831105005 54 268 16.0 26.0 0.00 0.00 0.00 72 1007.2
20260831104504 54 264 12.0 28.0 0.00 0.00 0.00 72 1007.2
20260831104004 54 257 13.0 28.0 0.00 0.00 0.00 72 1007.2
20260831103504 54 253 12.0 25.0 0.00 0.00 0.00 71 1007.3
20260831103004 54 247 11.0 26.0 0.00 0.00 0.00 72 1007.4
20260831102004 54 261 9.0 22.0 0.00 0.00 0.00 73 1007.3
20260831101504 54 267 11.0 22.0 0.00 0.00 0.00 73 1007.2
20260831101004 54 257 10.0 20.0 0.00 0.00 0.00 72 1007.2
20260831100004 54 250 9.0 18.0 0.00 0.00 0.00 72 1006.8
20260831095504 54 256 9.0 20.0 0.00 0.00 0.00 72 1006.8
20260831095004 54 256 12.0 20.0 0.00 0.00 0.00 72 1006.8
20260831094504 54 264 6.0 22.0 0.00 0.00 0.00 73 1006.8
20260831094004 54 273 6.0 22.0 0.00 0.00 0.00 73 1006.8
20260831093504 54 270 5.0 16.0 0.00 0.00 0.00 73 1006.8
20260831093004 54 260 6.0 16.0 0.00 0.00 0.00 73 1006.8
20260831091004 54 284 4.0 22.0 0.00 0.00 0.00 73 1006.7
20260831090004 54 260 5.0 15.0 0.00 0.00 0.00 72 1006.7
20260831085004 55 222 7.0 14.0 0.00 0.00 0.00 72 1006.6
20260831083504 55 279 3.0 16.0 0.00 0.00 0.00 71 1006.2
20260831083005 55 272 6.0 16.0 0.00 0.00 0.00 71 1006.3
20260831082506 54 250 5.0 16.0 0.00 0.00 0.00 71 1006.2
20260831082006 55 38 1.0 10.0 0.00 0.00 0.00 71 1006.2
20260831081505 55 261 2.0 14.0 0.00 0.00 0.00 71 1006.2
20260831081005 55 244 6.0 14.0 0.00 0.00 0.00 71 1006.0
20260831080005 55 292 5.0 13.0 0.00 0.00 0.00 71 1005.9
20260831075505 55 244 6.0 13.0 0.00 0.00 0.00 71 1006.1
20260831075005 55 243 8.0 18.0 0.00 0.00 0.00 71 1006.2
20260831074505 56 101 1.0 23.0 0.00 0.00 0.00 70 1006.1
20260831073506 56 254 10.0 32.0 0.00 0.00 0.00 70 1005.7
20260831073006 56 258 16.0 32.0 0.00 0.00 0.00 69 1005.6
20260831072505 56 274 12.0 26.0 0.00 0.00 0.00 70 1005.7
20260831072006 56 252 10.0 26.0 0.00 0.00 0.00 70 1005.6
20260831071505 56 256 5.0 25.0 0.00 0.00 0.00 71 1005.3
20260831071005 56 273 10.0 25.0 0.00 0.00 0.00 71 1005.6
20260831070006 56 269 6.0 14.0 0.00 0.00 0.00 73 1005.3
20260831065006 56 226 5.0 20.0 0.00 0.00 0.00 74 1005.5
20260831064505 56 243 3.0 20.0 0.00 0.00 0.00 75 1005.3
20260831064005 56 261 5.0 20.0 0.00 0.00 0.00 76 1005.2
20260831063505 55 317 9.0 15.0 0.00 0.00 0.00 76 1005.0
20260831063006 55 269 4.0 15.0 0.00 0.00 0.00 78 1005.1
20260831062506 56 294 6.0 15.0 0.00 0.00 0.00 78 1005.1
20260831062006 56 286 8.0 16.0 0.00 0.00 0.00 78 1005.2
20260831061505 55 308 8.0 16.0 0.00 0.00 0.00 80 1005.2
20260831061005 55 274 9.0 22.0 0.00 0.00 0.00 81 1005.7
20260831060006 57 270 8.0 21.0 0.00 0.00 0.00 76 1005.6
20260831055505 57 261 14.0 21.0 0.00 0.00 0.00 74 1005.6
20260831055005 57 264 10.0 23.0 0.00 0.00 0.00 74 1005.5
20260831054506 57 261 12.0 23.0 0.00 0.00 0.00 73 1005.2
20260831054005 57 257 10.0 20.0 0.00 0.00 0.00 74 1005.2
20260831053505 57 276 9.0 17.0 0.00 0.00 0.00 74 1005.0
20260831053005 57 257 11.0 17.0 0.00 0.00 0.00 75 1004.9
20260831052005 57 252 10.0 21.0 0.00 0.00 0.00 75 1005.0
20260831051505 57 259 10.0 21.0 0.00 0.00 0.00 75 1004.9
20260831051006 57 284 10.0 21.0 0.00 0.00 0.00 74 1004.9
20260831045506 57 259 13.0 24.0 0.00 0.00 0.00 76 1004.9
20260831045005 57 250 7.0 21.0 0.00 0.00 0.00 78 1004.9
20260831044505 57 255 8.0 21.0 0.00 0.00 0.00 77 1004.9
20260831044006 57 264 13.0 20.0 0.00 0.00 0.00 77 1005.0
20260831043506 57 250 9.0 23.0 0.00 0.00 0.00 76 1004.9
20260831043005 58 267 13.0 23.0 0.00 0.00 0.00 75 1004.7
20260831042505 58 258 10.0 26.0 0.00 0.00 0.00 73 1004.8
20260831042005 59 261 13.0 30.0 0.00 0.00 0.00 71 1004.7
20260831041505 59 260 17.0 30.0 0.00 0.00 0.00 70 1004.6
20260831041006 59 255 19.0 30.0 0.00 0.00 0.00 70 1004.5
20260831040005 60 267 13.0 21.0 0.00 0.00 0.00 70 1004.6
20260831035505 60 264 12.0 26.0 0.00 0.00 0.00 70 1004.6
20260831035005 60 258 17.0 26.0 0.00 0.00 0.00 71 1004.6
20260831034505 60 251 17.0 26.0 0.00 0.00 0.00 70 1004.6
20260831034005 61 249 12.0 33.0 0.00 0.00 0.00 70 1004.5
20260831033005 60 256 21.0 33.0 0.00 0.00 0.00 69 1004.5
20260831032505 61 266 17.0 29.0 0.00 0.00 0.00 68 1004.4
20260831032005 61 263 17.0 29.0 0.00 0.00 0.00 68 1004.2
20260831031505 61 266 16.0 28.0 0.00 0.00 0.00 68 1004.1
20260831031005 61 262 14.0 25.0 0.00 0.00 0.00 69 1004.1
20260831030006 61 257 13.0 25.0 0.00 0.00 0.00 71 1004.3
20260831025505 60 263 16.0 23.0 0.00 0.00 0.00 71 1004.5
20260831025005 61 264 12.0 24.0 0.00 0.00 0.00 73 1004.6
20260831024505 61 226 12.0 25.0 0.00 0.00 0.00 74 1004.6
20260831024005 61 258 12.0 25.0 0.00 0.00 0.00 73 1004.7
20260831023505 61 259 7.0 21.0 0.00 0.00 0.00 74 1004.6
20260831022505 60 285 11.0 21.0 0.00 0.00 0.00 74 1004.7